Location: Bühlhof
(48.7849°N, 8.6361°E)
Time: 15:10:05
(UTC+00:00)

Cosmos 1603 - Visible Passes

Search period start: 19 April 2026 00:00
Search period end: 29 April 2026 00:00
Orbit: 829 x 859 km, 71.0° (Epoch: 19 April)

Date Brightness Start Highest point End Pass type
(mag) Time Alt. Az. Time Alt. Az. Time Alt. Az.
19 Apr 6.1 00:49:27 10° WNW 00:52:47 16° NNW 00:56:08 10° N visible
19 Apr 5.1 21:10:45 23° E 21:10:45 23° E 21:13:52 10° NE visible
19 Apr 4.0 22:52:34 58° WNW 22:52:58 59° WNW 22:58:37 10° NNE visible
20 Apr 6.1 00:34:56 10° WNW 00:38:21 16° NW 00:41:47 10° N visible
20 Apr 5.0 20:56:01 23° E 20:56:01 23° E 20:59:26 10° NE visible
20 Apr 4.0 22:37:49 56° W 22:38:34 61° WNW 22:44:14 10° NNE visible
21 Apr 6.1 00:20:25 10° WNW 00:23:54 16° NW 00:27:26 10° N visible
21 Apr 4.9 20:41:11 23° E 20:41:11 23° E 20:44:59 10° NE visible
21 Apr 4.0 22:22:58 51° WSW 22:24:10 63° WNW 22:29:51 10° NNE visible
22 Apr 6.1 00:05:54 10° WNW 00:09:29 17° NW 00:13:05 10° N visible
22 Apr 4.8 20:26:12 23° E 20:26:12 23° E 20:30:33 10° NE visible
22 Apr 4.0 22:07:59 43° WSW 22:09:47 66° WNW 22:15:28 10° NNE visible
22 Apr 6.1 23:51:24 10° WNW 23:55:03 17° NW 23:58:44 10° N visible
23 Apr 4.8 20:11:03 22° ESE 20:11:50 22° E 20:16:06 10° NE visible
23 Apr 3.9 21:52:49 33° SW 21:55:23 68° WNW 22:01:06 10° NNE visible
23 Apr 6.1 23:36:53 10° WNW 23:40:37 18° NW 23:44:22 10° N visible
24 Apr 4.9 19:55:38 18° SE 19:57:28 21° E 20:01:39 10° NE visible
24 Apr 3.9 21:37:22 23° SW 21:40:59 70° WNW 21:46:42 10° NNE visible
24 Apr 6.1 23:22:23 10° W 23:26:11 18° NW 23:30:01 10° N visible
25 Apr 4.9 19:39:46 13° SE 19:43:06 21° E 19:47:12 10° NE visible
25 Apr 3.9 21:21:29 13° SW 21:26:36 72° WNW 21:32:19 10° NNE visible
25 Apr 6.2 23:07:53 10° W 23:11:45 18° NW 23:15:40 10° N visible
26 Apr 5.0 19:24:48 10° SE 19:28:45 20° E 19:32:44 10° NE visible
26 Apr 3.8 21:06:33 10° SSW 21:12:12 75° WNW 21:17:57 10° NNE visible
26 Apr 6.2 22:53:23 10° W 22:57:20 19° NW 23:01:18 10° N visible
27 Apr 5.0 19:10:32 10° SE 19:14:23 19° E 19:18:17 10° NE visible
27 Apr 3.8 20:52:10 10° SSW 20:57:49 77° WNW 21:03:33 10° NNE visible
27 Apr 6.2 22:38:53 10° W 22:42:54 19° NW 22:46:57 10° N visible
28 Apr 3.8 20:37:45 10° SSW 20:43:25 80° WNW 20:49:10 10° NNE visible
28 Apr 6.2 22:24:24 10° W 22:28:29 20° NW 22:32:36 10° N visible
